TimeCET,TemperatureF,Dew PointF,Humidity,Sea Level PressureIn,VisibilityMPH,Wind Direction,Wind SpeedMPH,Gust SpeedMPH,PrecipitationIn,Events,Conditions,WindDirDegrees,DateUTC
12:00 AM,33.8,32.0,93,30.21,3.1,West,6.9,-,N/A,Snow,Light Snow,280,2013-12-04 23:00:00
1:00 AM,33.8,32.0,93,30.21,3.7,West,9.2,-,N/A,Rain-Snow,Light Rain,270,2013-12-05 00:00:00
2:00 AM,35.6,32.0,87,30.24,6.2,WNW,6.9,-,N/A,,Overcast,290,2013-12-05 01:00:00
3:00 AM,35.6,32.0,87,30.24,6.2,WNW,9.2,-,N/A,,Mostly Cloudy,290,2013-12-05 02:00:00
4:00 AM,35.6,32.0,87,30.24,6.2,West,10.4,-,N/A,,Mostly Cloudy,260,2013-12-05 03:00:00
5:00 AM,35.6,32.0,87,30.27,6.2,West,10.4,-,N/A,,Mostly Cloudy,280,2013-12-05 04:00:00
6:00 AM,35.6,32.0,87,30.24,6.2,WSW,8.1,-,N/A,,Mostly Cloudy,250,2013-12-05 05:00:00
7:00 AM,33.8,32.0,93,30.27,6.2,West,4.6,-,N/A,,Mostly Cloudy,260,2013-12-05 06:00:00
8:00 AM,33.8,30.2,87,30.24,6.2,West,3.5,-,N/A,,Mostly Cloudy,270,2013-12-05 07:00:00
9:00 AM,35.6,32.0,87,30.24,-9999.0,West,8.1,-,N/A,,Clear,260,2013-12-05 08:00:00
10:00 AM,37.4,32.0,81,30.24,6.2,WSW,9.2,-,N/A,,Scattered Clouds,250,2013-12-05 09:00:00
11:00 AM,39.2,32.0,75,30.21,-9999.0,WSW,13.8,-,N/A,,Clear,240,2013-12-05 10:00:00
12:00 PM,39.2,30.2,70,30.18,6.2,WSW,11.5,-,N/A,,Mostly Cloudy,250,2013-12-05 11:00:00
1:00 PM,39.2,28.4,65,30.12,6.2,WSW,12.7,-,N/A,,Mostly Cloudy,240,2013-12-05 12:00:00
2:00 PM,37.4,26.6,65,30.09,6.2,WSW,12.7,-,N/A,,Mostly Cloudy,240,2013-12-05 13:00:00
3:00 PM,37.4,28.4,70,30.04,6.2,SW,4.6,-,N/A,,Overcast,220,2013-12-05 14:00:00
4:00 PM,37.4,28.4,70,29.98,6.2,SSW,5.8,-,N/A,,Overcast,210,2013-12-05 15:00:00
5:00 PM,37.4,28.4,70,29.92,6.2,SSW,3.5,-,N/A,,Overcast,210,2013-12-05 16:00:00
6:00 PM,37.4,30.2,75,29.86,6.2,SW,8.1,-,N/A,,Overcast,220,2013-12-05 17:00:00
7:00 PM,37.4,30.2,75,29.77,6.2,SSW,8.1,-,N/A,,Overcast,210,2013-12-05 18:00:00
7:13 PM,37.4,30.2,75,29.77,6.2,SW,13.8,26.5,N/A,,Overcast,220,2013-12-05 18:13:00
8:00 PM,39.2,30.2,70,29.71,6.2,SW,15.0,-,N/A,Rain,Light Rain,230,2013-12-05 19:00:00
9:00 PM,37.4,32.0,81,29.68,6.2,WSW,23.0,34.5,N/A,Rain,Light Rain,240,2013-12-05 20:00:00
10:00 PM,39.2,33.8,81,29.65,6.2,WSW,19.6,31.1,N/A,Rain,Light Rain,240,2013-12-05 21:00:00
11:00 PM,41.0,33.8,76,29.62,6.2,WSW,28.8,40.3,N/A,Rain,Light Rain,250,2013-12-05 22:00:00